This is the latest recevied weather packets stored in our database for station/object PP5EO-15. If no packets are shown the sender has not sent any weather packets the latest 10 day(s).
| Time | Temp. | Humidity | Pressure | Rain* | Wind** | Luminosity | Snow |
|---|---|---|---|---|---|---|---|
| 1777298211 | 39.44° C | 28% | 1012.5 hPa | - | - | - | - |
| 1777297609 | 38.89° C | 29% | 1012.6 hPa | - | - | - | - |
| 1777297014 | 38.89° C | 29% | 1012.7 hPa | - | - | - | - |
| 1777296419 | 38.89° C | 29% | 1012.9 hPa | - | - | - | - |
| 1777295824 | 39.44° C | 30% | 1012.9 hPa | - | - | - | - |
| 1777295229 | 38.89° C | 32% | 1012.8 hPa | - | - | - | - |
| 1777294634 | 37.78° C | 34% | 1012.7 hPa | - | - | - | - |
| 1777294039 | 36.67° C | 37% | 1012.7 hPa | - | - | - | - |
| 1777293444 | 35° C | 40% | 1012.5 hPa | - | - | - | - |
| 1777292849 | 34.44° C | 41% | 1012.4 hPa | - | - | - | - |
| 1777292254 | 33.89° C | 43% | 1012.6 hPa | - | - | - | - |
| 1777291659 | 33.33° C | 45% | 1012.6 hPa | - | - | - | - |
| 1777291064 | 32.78° C | 48% | 1012.5 hPa | - | - | - | - |
| 1777290470 | 31.67° C | 49% | 1012.4 hPa | - | - | - | - |
| 1777289874 | 31.11° C | 50% | 1012.2 hPa | - | - | - | - |
| 1777289279 | 30.56° C | 51% | 1012.2 hPa | - | - | - | - |
| 1777288684 | 30.56° C | 52% | 1012.1 hPa | - | - | - | - |
| 1777288089 | 30° C | 53% | 1011.9 hPa | - | - | - | - |
| 1777287494 | 30° C | 53% | 1011.8 hPa | - | - | - | - |
| 1777286899 | 29.44° C | 53% | 1011.6 hPa | - | - | - | - |
| 1777286304 | 29.44° C | 53% | 1011.5 hPa | - | - | - | - |
| 1777285709 | 29.44° C | 53% | 1011.4 hPa | - | - | - | - |
| 1777285114 | 29.44° C | 54% | 1011.1 hPa | - | - | - | - |
| 1777284520 | 29.44° C | 54% | 1010.9 hPa | - | - | - | - |
| 1777283924 | 28.89° C | 54% | 1011 hPa | - | - | - | - |
* Rain since midnight (hover to see other rain measurements)
** Current wind speed in m/s (hover to see current wind gust speed)